Regional Weather Roundup
Issued by NWS Upton, NY

Current Version | Previous Version | Graphics & Text | Print | Product List | Glossary Off
Versions: 1 2 3 4 5 6 7 8 9 10 11 12 13 14 15 16 17 18 19 20 21 22 23 24 25 26 27

000
ASUS41 KOKX 210705
RWROKX

Regional Weather Roundup
National Weather Service New York NY
200 AM EST WED FEB 21 2018

Note: "FAIR" indicates few or no clouds below 12,000 feet with no
significant weather and/or obstructions to visibility.

NYZ071-072-176-178-NJZ106-104-210800-
New York City Metro Area

CITY           SKY/WX    TMP DP  RH WIND       PRES   REMARKS
Central Park   FAIR      57  53  86 CALM      30.33F
Bronx Bot Gard   N/A     52  50  93 SE9       30.33S
Bronx Lehman C   N/A     54  52  94 S6          N/A
LaGuardia Arpt FOG       52  50  93 S8        30.31F VSB<1/4
Queens College   N/A     54  54 100 S8          N/A
Kennedy Intl   FOG       48  48 100 S15       30.33F VSB 1/4
Breezy Point     N/A     43 N/A N/A S13         N/A
Brooklyn Coll    N/A     50  50 100 S8          N/A
Staten Island    N/A     59  57  94 S3          N/A
Newark/Liberty MOCLDY    57  55  93 S5        30.30F
Teterboro      FAIR      52  51  97 SW7       30.29F
$$

NYZ177-179-078>081-210800-
Long Island New York

CITY           SKY/WX    TMP DP  RH WIND       PRES   REMARKS
Jones Beach      N/A     43 N/A N/A S14         N/A
Wantagh          N/A     46  46 100 S8          N/A
Hempstead        N/A     54  52  94 S3        30.36S
Matinecock Pt    N/A     55 N/A N/A SW10G16     N/A
Farmingdale    FOG       50  50 100 SW10      30.33F VSB 1/2
MacArthur/ISP  FOG       49  49 100 SW9       30.32F VSB 1/2
Shirley        FOG       49  49 100 S7        30.34F VSB 1/2
Mt Sinai Harb    N/A    N/A N/A N/A S9G16       N/A
Westhampton    FOG       48  48 100 SW12      30.36F VSB 1/2
East Hampton   FOG       50  50  99 SW12G20   30.33F VSB 3/4
Southold         N/A     52  52 100 S9          N/A
Montauk          N/A     51  51 100 SW12G21   30.34F
$$

NYZ052-065-067-210800-
Hudson Valley

CITY           SKY/WX    TMP DP  RH WIND       PRES   REMARKS
White Plains   FOG       50  50 100 VRB3      30.29F VSB 3/4
Larchmont Harb   N/A     45 N/A N/A S12         N/A
Croton On Huds   N/A     52 N/A N/A MISG        N/A
Somers           N/A     57  55  94 S5          N/A
Brewster         N/A     52  52 100 CALM        N/A
Newburgh       CLEAR     46  46 100 CALM      30.29F
Montgomery     FOG       38  37  97 CALM      30.26F VSB 1/4
Otisville        N/A     48  48 100 S2          N/A
Warwick          N/A     50  50 100 E1          N/A
Suffern          N/A     54  54 100 SW2         N/A
Poughkeepsie   FAIR      42  40  92 CALM      30.27F
Albany         FAIR      57  51  80 S12       30.22R
$$

NJZ001-105-106-008-010-013-015-019>022-104-210800-
New Jersey

CITY           SKY/WX    TMP DP  RH WIND       PRES   REMARKS
Newark/Liberty MOCLDY    57  55  93 S5        30.30F
Teterboro      FAIR      52  51  97 SW7       30.29F
Caldwell       FAIR      58  58 100 SW6       30.30F
Somerville     FOG       42  42 100 NW3       30.29F VSB 1/4
Linden         FAIR      58  55  91 CALM      30.31F
Perth Amboy      N/A     61 N/A N/A SW9         N/A
Sussex         FOG       40  40 100 CALM      30.28F VSB 1/4
Andover          N/A     39  39 100 CALM      30.29F
Trenton        CLOUDY    59  57  93 S7        30.31F
Millville      MOCLDY    60  59  96 VRB6      30.35F
Atlantic City  MOCLDY    56  56 100 S8        30.36F
Wrightstown    FAIR      59  59  98 S6        30.31F
Toms River     FAIR      58  56  93 S6        30.35F
Belmar         FAIR      60  58  92 S9        30.34F
$$

PAZ047>061-062-071-210800-
Eastern Pennsylvania

CITY           SKY/WX    TMP DP  RH WIND       PRES   REMARKS
Philadelphia   FAIR      57  57 100 S7        30.33F FOG
Allentown      FAIR      44  42  93 CALM      30.29
Scranton       FAIR      56  53  90 NE3       30.26F
$$

CTZ002-004>006-009-010-012-RIZ004-006-007-MAZ004-011-015-210800-
Southern New England

 In CT

CITY           SKY/WX    TMP DP  RH WIND       PRES   REMARKS
Bradley Intl   MOCLDY    47  46  97 SE6       30.29S FOG
Hartford       FAIR      52  50  93 S7        30.30F
Danbury        FAIR      58  55  90 SW5       30.29F
Wtrbury/Oxford FAIR      53  52  96 SW5       30.31F FOG
Norwalk Harbor   N/A     43 N/A N/A NW2         N/A
Bridgeport     FOG       47  46  97 SW8       30.32F VSB 1/4
Meriden        FOG       48  47  96 S7        30.30F VSB 3/4
New Haven      FOG       46  45  96 W3        30.32F VSB 1/4
Chester        FOG       52  52 100 VRB6G12   30.32S VSB<1/4
Groton         FOG       48  47  96 CALM      30.32F VSB 1/4
Willimantic    FOG       45  44  97 CALM      30.32F VSB 1/2

 In RI

CITY           SKY/WX    TMP DP  RH WIND       PRES   REMARKS
Providence     FAIR      56  55  97 SW12      30.30F
Block Island   NOT AVBL
Westerly       FOG       50  50 100 SW5       30.34F VSB 1/4

In MA

CITY           SKY/WX    TMP DP  RH WIND       PRES   REMARKS
Boston         FAIR      42  40  92 CALM      30.27F
Worcester      FAIR      54  32  43 SW18      30.27S
Westfield      FAIR      50  50 100 S7        30.26S
Provincetown   FOG       43  43 100 SW12      30.30F VSB 1/2
Nantucket      FOG       45  45 100 SW13      30.35F VSB 1/4
$$

ANZ330-335-338-340-345-350-353-355-210800-
Coastal Marine Observations


STATION/POSITION TIME  SKY/WX   TEMP    WIND        PRES    VSBY  WAVE
                                AIR SEA DIR/SP/G                  HT/PER
                 (UTC)          (F)     (DEG/KT/KT) (MB)    (MI)  (FT/S)
NY Harb Entrance 0650            44 41  180/ 14/ 16 1026.9          4/12
20 S Fire Island 0650            47 42  210/ 16/ 17 1027.8          5/ 6
15 E Barnegat Li 0630               41                N/A           5/12
Hudson Canyon    0650            51 47  200/ 14/ 17 1029.3          5/12
Kings Point      0642            49 38  210/ 14/ 15 1027.3
Execution Rocks  NOT AVBL
Western LI Sound NOT AVBL
Central LI Sound 0630            44      CALM  /  2   N/A           1
Robbins Reef     0648            51     170/  9/ 11 1027.2
$$


>>>>>>>>>>>>>>>>>>>>>>>>>>>> KEY <<<<<<<<<<<<<<<<<<<<<<<<<<<
>                                                          <
>     SKY/WX - Sky Condition/Present Weather               <
>     TMP    - Temperature in Fahrenheit                   <
>     DP     - Dew Point in Fahrenheit                     <
>     RH     - Relative Humidity in Percent                <
>     WIND   - Direction (from) and Speed in MPH           <
>     PRES   - Mean Sea Level Pressure (inches of Hg)      <
>     WCI    - Wind Chill Index                            <
>     VSB    - Visibility in Miles                         <
>     HX     - Heat Index                                  <
>     TC     - Temperature in Celsius                      <
>     VRB    - Varibale Wind Direction                     <
>                                                          <
>>>>>>>>>>>>>>>>>>>>>>>>>>>> KEY <<<<<<<<<<<<<<<<<<<<<<<<<<<




USA.gov is the U.S. government's official web portal to all federal, state and local government web resources and services.